Powrót do katalogu

GALAXY 28

IA 8

AktywnyŁącznośćGEO
NORAD 28702·PAYLOAD· XX

Wystrzelony Jun 23, 2005 z Sea Launch Platform

Loading…

TLE

ŚwieżeSource: CelesTrak SupGP

Epoka: Sep 14, 2026, 00:00 UTC

1 28702C 05022A   26257.00000000 -.00000109  00000+0  00000+0 0  2576
2 28702   3.5214  77.7438 0002079  87.9603 160.2042  1.00270731    10

Śledź GALAXY 28 w czasie rzeczywistym z AllMySat

Download on the App Store